Temperature
8 8 8 8 8 8 8 8 8 8 8 8 8 9 9 9 9 10 10 10 10 10 10 10 10 10 10 10 10 10 9 9 10 10 10 10 10 10 10 10 10 10 10
8 8 8 8 8 8 7 7 7 7 7 7 7 8 8 8 9 9 9 10 10 10 10 10 10 10 10 10 10 10 9 9 9 9 9 9 9 9 10 10 10 10 9
8 8 8 8 7 7 7 7 7 7 7 7 7 7 7 8 8 8 8 9 9 10 10 10 10 10 10 10 10 9 9 9 9 8 8 8 8 8 9 9 9 9 9
8 8 8 8 7 7 7 7 7 7 7 7 7 7 7 7 7 8 8 8 9 9 9 10 10 10 10 9 9 9 9 9 8 8 8 8 8 8 8 8 8 8 8
8 8 8 8 7 7 7 7 7 7 7 7 6 6 7 7 7 7 8 8 8 9 9 9 9 9 9 9 9 8 8 8 8 8 7 7 7 7 7 7 7 7 7
8 8 8 8 7 7 7 7 7 6 6 6 6 6 7 7 7 8 8 8 8 8 8 8 8 8 8 8 8 8 7 7 7 7 7 6 6 6 6 6 6 7 7
8 8 8 8 7 7 7 7 6 6 6 6 5 6 6 7 8 8 8 8 8 8 7 7 7 7 7 8 7 7 7 7 6 6 6 6 6 6 6 6 6 6 6
8 8 8 8 8 7 7 7 7 6 6 6 5 4 4 6 7 7 7 7 7 7 7 6 6 6 6 6 7 7 7 7 6 6 6 6 5 5 6 6 6 6 6
9 8 8 8 8 7 7 7 7 6 6 6 5 4 4 4 4 5 6 6 6 6 6 6 5 5 5 5 6 6 6 6 6 6 5 5 5 5 5 5 6 6 6
8 8 8 8 7 7 7 7 6 6 5 5 5 5 4 4 3 3 4 5 5 5 5 5 5 5 5 5 5 5 5 5 5 5 5 4 4 4 5 5 5 6 6
8 8 7 7 7 7 7 6 6 6 6 5 5 5 4 4 3 2 2 4 4 5 5 4 4 4 4 4 4 4 4 4 4 4 4 3 3 3 4 4 5 5 5
7 7 7 7 7 7 6 6 6 6 5 5 5 4 4 3 3 3 2 2 2 3 3 3 3 4 4 4 4 4 4 3 3 3 3 3 3 3 3 3 4 4 5
7 7 6 6 6 6 6 6 5 5 5 5 5 4 4 3 3 3 2 2 1 2 2 2 3 3 3 3 3 3 3 3 3 3 2 2 2 2 2 2 2 3 4
7 6 6 6 6 6 6 5 5 5 5 4 4 4 3 3 3 2 2 1 1 1 1 1 2 2 2 2 2 2 2 2 2 2 2 1 1 1 1 1 1 2 2
6 6 6 6 6 6 5 5 5 4 4 3 3 3 2 2 2 2 1 1 0 -0 -0 0 0 1 1 1 1 1 1 1 1 1 1 1 0 0 0 0 0 1 1
6 6 6 5 5 5 5 4 4 4 3 3 2 2 2 1 1 1 0 0 -0 -0 -1 -0 -0 -1 -1 -1 -1 -1 -0 -0 0 0 0 -0 -0 -1 -1 -1 -1 -0 0
5 5 5 5 5 4 4 4 3 3 2 2 2 1 1 0 -0 -0 -1 -1 -1 -1 -1 -1 -1 -1 -2 -2 -2 -2 -1 -1 -1 -1 -1 -1 -1 -1 -1 -1 -1 -1 -1
5 5 4 4 4 4 3 3 2 2 1 1 1 0 -0 -1 -1 -1 -2 -2 -2 -2 -2 -2 -2 -2 -2 -2 -3 -2 -2 -2 -2 -2 -2 -2 -2 -2 -2 -2 -2 -1 -1
4 4 4 3 3 3 2 2 1 1 0 -0 -1 -1 -1 -2 -2 -2 -3 -3 -3 -3 -3 -3 -3 -3 -3 -3 -3 -3 -3 -3 -2 -2 -2 -2 -2 -2 -2 -2 -2 -2 -2
4 3 3 3 2 2 2 1 0 -0 -1 -1 -1 -2 -3 -3 -3 -4 -4 -4 -4 -4 -4 -4 -4 -4 -4 -3 -3 -3 -3 -3 -3 -3 -3 -3 -3 -3 -3 -3 -3 -2 -2
3 3 2 2 2 1 1 -0 -1 -1 -2 -2 -3 -3 -4 -4 -4 -4 -4 -4 -4 -4 -4 -4 -4 -4 -4 -4 -4 -4 -4 -3 -3 -3 -3 -3 -3 -3 -3 -3 -3 -3 -3
2 2 2 1 1 0 -0 -1 -2 -2 -3 -3 -3 -4 -4 -4 -5 -5 -5 -4 -4 -4 -4 -4 -4 -4 -4 -4 -4 -4 -4 -4 -4 -4 -3 -3 -3 -3 -3 -3 -3 -3 -3
2 1 1 0 -0 -0 -1 -2 -2 -3 -3 -4 -4 -5 -5 -5 -5 -5 -5 -5 -5 -4 -4 -4 -4 -4 -4 -4 -4 -4 -4 -4 -4 -4 -4 -4 -4 -4 -3 -3 -3 -3 -3
1 0 -0 -0 -1 -1 -2 -3 -3 -4 -4 -4 -5 -5 -5 -5 -5 -5 -5 -5 -4 -4 -4 -4 -4 -4 -4 -4 -4 -4 -4 -4 -4 -4 -4 -4 -4 -4 -4 -3 -3 -4 -4
-0 -0 -1 -1 -2 -2 -2 -3 -4 -4 -4 -5 -5 -5 -5 -5 -5 -5 -5 -4 -4 -4 -4 -4 -4 -4 -4 -4 -4 -4 -4 -4 -4 -4 -4 -4 -4 -4 -4 -4 -4 -4 -4
-1 -1 -2 -2 -2 -3 -3 -4 -5 -5 -5 -5 -5 -5 -5 -5 -5 -5 -5 -5 -5 -5 -4 -4 -4 -4 -4 -4 -4 -4 -4 -4 -4 -4 -4 -4 -4 -4 -4 -4 -4 -4 -4
Wind_Speed
6 7 7 9 10 10 10 9 9 10 10 11 11 11 11 13 14 15 16 17 18 19 20 21 21 21 21 21 21 20 20 20 19 19 18 18 17 16 16 15 14 13 12
9 7 7 7 8 9 9 9 9 9 8 9 9 11 12 14 16 18 19 20 21 22 23 24 24 25 25 24 24 24 23 23 23 23 22 21 21 20 19 19 18 17 16
10 8 6 6 8 10 10 9 9 8 5 5 6 9 11 14 16 17 19 20 21 23 25 26 27 27 27 27 27 27 27 26 26 26 26 25 24 24 23 22 21 20 19
12 9 6 6 9 9 8 5 3 4 5 5 6 6 8 11 14 17 19 20 20 21 24 27 28 28 29 30 30 30 30 29 29 29 29 28 28 27 27 26 25 24 23
9 8 6 7 8 7 5 4 4 4 5 6 6 7 6 6 9 14 14 19 21 22 22 25 28 29 30 31 32 32 32 32 32 32 32 31 31 31 30 29 28 28 27
8 7 6 6 7 4 4 4 5 5 5 6 8 8 8 8 8 9 12 17 19 21 22 23 24 25 29 30 32 33 34 34 34 35 35 34 34 34 33 33 32 31 30
8 7 5 5 5 4 5 6 5 6 5 4 5 6 7 10 13 13 11 11 12 18 20 21 21 22 23 28 30 31 32 34 36 36 36 37 37 36 36 36 35 34 33
6 6 5 4 4 4 6 6 6 5 5 4 3 4 5 5 6 10 8 10 10 11 12 18 19 20 21 21 25 29 30 32 34 35 36 37 38 38 38 38 37 37 36
4 4 5 5 4 4 5 6 6 7 6 5 5 5 4 5 5 5 6 6 6 6 6 11 15 19 21 22 23 27 31 32 33 33 34 36 37 38 39 39 39 39 38
3 3 4 5 4 4 5 6 6 5 6 6 5 6 7 7 5 5 4 5 7 7 8 9 10 16 20 21 23 27 30 32 32 33 33 34 35 36 38 39 40 40 40
2 3 3 3 4 4 5 6 6 6 5 7 6 6 7 7 8 9 11 7 7 8 10 10 9 12 19 21 22 25 30 32 32 33 33 33 33 34 36 37 39 40 41
1 2 3 3 5 4 5 6 6 7 7 8 7 7 7 7 7 9 11 11 11 8 9 8 8 8 14 18 22 27 30 31 32 32 32 32 32 33 34 36 37 38 40
2 2 1 3 4 5 7 6 7 8 8 9 9 8 8 9 8 9 12 15 14 10 9 8 9 9 15 18 20 26 30 32 32 32 32 32 32 32 33 35 36 37 39
3 3 3 5 6 8 7 6 6 8 8 9 11 10 9 9 9 9 10 12 17 14 9 10 7 8 12 15 18 23 24 30 31 30 30 30 31 32 33 34 35 36 37
3 4 5 6 7 7 7 7 7 8 8 9 9 10 10 9 9 9 9 9 13 20 18 10 7 7 8 14 19 19 16 23 28 29 29 29 30 31 32 33 34 35 36
4 6 7 7 8 7 7 8 8 8 9 9 8 10 10 9 9 8 9 9 10 15 21 11 8 8 9 12 22 21 19 27 29 29 30 30 30 31 32 33 33 34 35
6 7 7 8 8 9 9 8 9 9 10 10 10 10 11 11 9 8 8 9 9 10 19 17 9 7 9 10 11 14 18 17 19 28 31 31 31 31 31 32 32 33 34
7 7 8 8 9 9 9 9 10 10 10 10 10 10 11 11 11 9 8 10 10 10 14 20 13 8 10 10 11 12 13 16 13 25 30 31 31 31 31 31 31 32 32
8 8 8 9 9 9 10 10 10 10 10 10 10 11 12 12 14 12 12 12 12 13 12 16 18 11 9 10 11 13 14 12 15 22 27 29 30 31 30 30 30 31 30
8 9 9 9 10 10 11 11 11 11 11 11 11 12 13 14 15 15 15 14 13 14 13 15 17 13 11 9 9 11 12 10 12 14 18 22 26 29 29 29 29 28 28
9 9 10 11 10 10 10 11 10 11 11 12 12 12 14 19 23 20 17 13 13 13 14 15 16 15 13 10 10 10 14 11 11 10 11 12 12 10 13 22 25 26 27
9 10 10 11 11 11 19 24 19 12 11 11 12 12 14 18 22 27 29 27 23 17 14 15 15 16 15 12 11 11 13 14 13 6 9 12 9 10 9 8 20 25 26
10 10 10 10 11 13 22 26 25 17 12 11 12 12 15 16 21 15 21 27 25 28 27 20 18 18 16 13 13 15 14 15 15 7 7 12 8 10 9 13 23 24 24
9 9 10 11 11 14 24 26 26 16 11 11 12 13 15 15 16 18 15 15 15 16 20 16 15 17 17 15 15 16 17 17 15 11 10 13 10 10 11 9 19 23 24
9 9 10 11 11 14 23 26 26 11 10 12 12 13 15 15 23 28 20 16 16 15 20 26 27 25 28 28 23 13 12 13 14 10 8 9 9 8 8 8 13 21 23
10 10 10 10 12 12 20 25 25 10 10 11 11 12 20 22 26 28 18 15 18 16 14 15 18 20 18 19 24 15 11 13 13 9 6 7 7 6 6 6 8 8 11
Wind_Direction
187 199 202 209 213 215 217 219 228 242 245 243 242 242 245 250 250 249 248 251 256 258 260 262 261 261 261 261 261 259 256 255 254 254 253 253 252 251 251 251 251 252 253
198 203 206 212 220 225 230 229 233 242 245 244 242 244 246 249 252 252 250 250 253 256 258 260 261 261 260 260 259 258 257 255 253 252 251 250 250 249 249 248 248 248 249
212 210 211 217 225 232 238 239 246 257 260 259 256 256 255 253 252 252 252 249 248 251 255 258 259 260 260 259 258 258 257 256 255 252 250 249 248 248 248 247 247 246 246
216 218 216 222 234 238 236 232 233 252 258 257 256 253 252 252 250 250 250 250 248 246 249 255 258 260 261 260 259 258 257 256 256 254 252 250 248 247 246 246 245 245 245
227 227 225 232 242 246 243 236 235 238 257 266 266 264 258 255 255 255 250 248 247 246 245 251 258 261 263 264 264 262 260 258 256 255 254 252 250 247 246 245 244 244 243
242 241 240 244 252 252 251 244 246 248 250 257 272 274 268 264 261 258 256 254 249 247 247 247 251 256 261 265 266 266 265 263 259 256 255 253 252 250 247 245 244 244 243
240 237 235 243 248 247 249 247 249 259 263 262 280 289 275 258 254 254 250 248 246 245 245 245 246 247 254 260 265 267 268 267 265 262 258 255 253 252 250 247 245 244 243
245 237 225 227 236 245 252 253 249 256 262 246 245 297 306 303 267 255 248 242 242 239 239 244 247 247 247 249 254 262 268 270 270 268 265 261 257 254 252 250 248 245 243
250 248 244 243 246 241 247 248 242 244 254 252 214 217 258 273 313 302 291 275 259 248 245 246 247 247 247 245 247 256 262 267 270 272 271 269 265 260 256 253 251 248 246
217 236 250 257 257 255 257 255 246 240 242 253 252 231 230 234 269 295 282 283 291 279 270 263 255 250 248 245 245 251 258 264 268 271 272 273 272 268 263 258 254 252 249
189 213 234 258 265 261 261 262 264 254 241 241 240 244 252 253 244 259 278 272 267 260 261 260 257 254 251 246 244 248 257 262 266 269 271 272 273 272 270 266 261 256 252
266 234 224 247 259 258 259 259 258 257 252 251 248 241 241 244 247 252 268 274 274 266 262 265 266 264 262 256 251 252 255 260 264 267 269 271 272 273 272 271 269 265 260
313 301 301 276 272 266 262 256 256 256 254 254 253 253 249 250 248 254 267 277 279 277 268 265 264 269 272 267 262 257 256 260 262 265 267 269 270 271 272 271 270 268 266
287 296 297 281 277 276 273 263 261 257 255 251 255 254 255 255 252 252 260 275 283 283 268 262 262 264 274 278 277 270 263 263 264 265 266 268 269 271 271 271 269 268 266
289 292 287 279 275 274 270 268 264 262 260 256 256 257 258 258 255 255 254 254 270 284 283 269 261 263 276 285 289 290 279 274 272 270 269 269 270 271 271 270 269 267 265
292 289 285 281 279 276 273 272 271 267 266 264 261 263 264 264 260 256 254 256 255 268 280 275 261 258 267 278 283 286 285 285 281 277 275 273 273 273 273 271 269 268 265
293 290 286 285 284 283 281 278 276 277 275 276 276 276 275 274 272 268 265 263 262 264 277 283 271 265 264 269 278 278 280 278 276 276 276 275 274 273 274 274 271 268 266
294 290 290 288 286 286 285 284 285 285 283 284 285 287 288 291 287 284 281 277 274 270 276 285 286 278 270 271 273 273 278 277 272 275 275 275 274 272 272 272 272 270 268
291 289 288 286 286 286 285 281 280 280 279 280 284 286 287 287 285 283 281 280 279 279 275 280 284 282 276 271 272 273 271 270 271 273 273 273 273 273 272 271 271 270 268
287 286 284 281 281 280 279 278 277 276 275 274 273 274 276 276 278 278 278 274 274 273 271 273 279 280 276 267 265 271 274 265 266 268 269 269 269 270 269 270 271 271 269
283 281 281 279 276 278 278 277 274 271 270 272 273 274 278 282 282 283 281 276 270 271 273 274 277 280 278 274 270 270 274 274 267 259 262 262 262 258 262 266 269 271 270
281 280 278 278 279 283 291 295 296 287 280 280 284 284 286 286 286 287 286 287 284 280 279 278 280 280 280 276 273 272 275 277 277 239 249 259 247 251 248 245 258 263 266
282 282 281 281 282 285 296 300 300 298 288 286 287 288 290 289 291 284 284 284 283 282 281 280 279 279 280 276 275 277 273 272 272 256 252 265 250 252 247 251 258 259 261
281 283 286 286 287 291 300 301 302 299 288 284 282 282 284 283 282 284 278 274 269 271 273 275 271 272 272 271 264 266 270 271 269 260 246 263 257 252 250 240 251 255 259
285 286 286 287 288 292 299 302 302 292 287 284 282 283 285 284 286 290 289 284 282 278 278 277 275 276 276 277 275 272 268 272 275 267 233 248 257 253 247 244 245 250 254
283 284 285 284 284 287 297 303 303 294 290 290 286 281 285 288 290 292 291 287 287 286 279 277 276 277 277 277 279 273 270 272 275 274 232 230 243 236 252 241 235 238 246
Height
1554 1555 1555 1555 1555 1555 1555 1555 1555 1555 1554 1554 1553 1552 1552 1551 1551 1550 1550 1549 1549 1549 1548 1548 1547 1547 1546 1546 1545 1545 1544 1544 1544 1543 1543 1543 1543 1543 1542 1542 1542 1542 1541
1552 1553 1553 1553 1554 1554 1553 1553 1553 1552 1551 1551 1550 1549 1548 1547 1546 1545 1544 1544 1544 1543 1543 1543 1542 1542 1542 1541 1541 1540 1540 1540 1539 1539 1539 1538 1538 1538 1538 1538 1538 1538 1538
1550 1551 1551 1551 1551 1551 1551 1550 1550 1549 1548 1547 1546 1545 1544 1542 1541 1540 1539 1538 1537 1537 1536 1536 1536 1536 1536 1535 1535 1535 1534 1534 1534 1534 1533 1533 1533 1533 1533 1533 1533 1533 1533
1548 1548 1548 1548 1548 1548 1548 1547 1546 1545 1544 1543 1541 1540 1538 1537 1535 1534 1533 1532 1531 1530 1529 1529 1529 1529 1529 1528 1528 1528 1528 1527 1527 1527 1527 1527 1527 1527 1527 1528 1528 1528 1528
1545 1545 1545 1545 1545 1545 1544 1543 1542 1541 1539 1538 1536 1534 1533 1531 1529 1528 1526 1525 1524 1523 1522 1521 1521 1520 1520 1520 1520 1520 1520 1520 1519 1519 1520 1520 1520 1520 1520 1521 1521 1522 1522
1541 1541 1541 1541 1541 1540 1540 1539 1538 1537 1535 1533 1531 1528 1526 1525 1523 1521 1520 1518 1516 1515 1515 1514 1513 1513 1512 1512 1511 1511 1511 1511 1511 1511 1511 1512 1512 1513 1513 1513 1514 1515 1515
1537 1537 1537 1537 1536 1536 1535 1534 1533 1532 1531 1530 1527 1522 1519 1517 1515 1513 1512 1510 1509 1509 1508 1507 1507 1505 1504 1504 1503 1503 1502 1502 1502 1502 1503 1503 1503 1504 1505 1506 1506 1507 1508
1534 1534 1533 1533 1532 1531 1531 1530 1529 1527 1526 1526 1523 1519 1513 1509 1507 1507 1506 1505 1504 1503 1502 1501 1500 1499 1497 1496 1495 1495 1494 1493 1492 1492 1493 1494 1494 1495 1496 1497 1498 1499 1499
1531 1531 1530 1529 1529 1528 1527 1526 1525 1523 1522 1521 1520 1518 1513 1505 1502 1500 1501 1501 1499 1498 1497 1495 1493 1492 1490 1488 1487 1486 1485 1484 1483 1482 1482 1483 1484 1485 1486 1487 1488 1489 1490
1528 1528 1527 1526 1525 1524 1523 1522 1521 1520 1518 1516 1515 1513 1511 1507 1502 1492 1490 1492 1492 1491 1490 1488 1486 1484 1483 1481 1479 1478 1476 1475 1474 1473 1472 1472 1473 1474 1475 1476 1477 1479 1480
1526 1525 1524 1523 1522 1521 1520 1518 1517 1515 1514 1511 1509 1507 1505 1502 1499 1493 1483 1481 1481 1481 1481 1480 1478 1476 1475 1473 1471 1469 1468 1466 1465 1464 1462 1462 1462 1462 1463 1465 1466 1468 1469
1523 1522 1521 1520 1518 1517 1515 1514 1512 1510 1508 1506 1504 1501 1499 1496 1492 1488 1480 1474 1471 1471 1471 1471 1470 1469 1467 1465 1463 1461 1460 1458 1456 1455 1454 1452 1452 1451 1452 1453 1454 1456 1457
1520 1519 1518 1516 1514 1513 1511 1509 1506 1504 1502 1499 1497 1494 1492 1489 1487 1483 1477 1469 1463 1460 1461 1460 1461 1459 1458 1456 1454 1453 1451 1449 1447 1446 1444 1443 1442 1441 1441 1441 1441 1443 1445
1517 1515 1514 1512 1510 1507 1505 1503 1500 1498 1495 1492 1489 1487 1484 1481 1479 1476 1472 1467 1457 1450 1449 1448 1450 1450 1449 1448 1445 1443 1441 1440 1438 1437 1435 1434 1432 1431 1430 1430 1430 1430 1432
1512 1511 1509 1507 1504 1502 1499 1496 1493 1491 1488 1485 1482 1479 1476 1473 1471 1468 1465 1462 1457 1444 1435 1438 1439 1439 1440 1438 1436 1434 1432 1430 1429 1427 1426 1424 1423 1421 1420 1419 1418 1418 1419
1508 1506 1504 1501 1499 1496 1493 1490 1486 1483 1480 1477 1474 1471 1467 1464 1462 1459 1456 1454 1450 1443 1429 1426 1428 1429 1428 1427 1426 1424 1421 1420 1418 1417 1416 1414 1413 1411 1410 1409 1408 1407 1408
1503 1501 1498 1495 1492 1489 1486 1482 1479 1476 1472 1468 1466 1462 1458 1456 1452 1449 1447 1444 1440 1437 1426 1416 1419 1419 1418 1417 1415 1414 1411 1409 1407 1406 1405 1404 1402 1401 1399 1398 1397 1397 1397
1498 1495 1492 1489 1485 1482 1479 1475 1471 1467 1464 1460 1456 1453 1449 1446 1442 1439 1436 1433 1430 1427 1422 1411 1407 1408 1407 1406 1404 1402 1401 1399 1397 1395 1394 1393 1391 1390 1389 1388 1387 1386 1386
1492 1489 1485 1482 1478 1474 1470 1467 1462 1458 1454 1451 1447 1443 1439 1435 1431 1428 1425 1421 1419 1416 1413 1406 1398 1398 1397 1396 1394 1391 1389 1387 1386 1384 1383 1382 1381 1379 1378 1377 1376 1376 1376
1485 1482 1478 1474 1470 1466 1462 1458 1454 1449 1445 1441 1437 1433 1429 1426 1421 1418 1415 1411 1409 1406 1403 1398 1392 1388 1387 1386 1385 1381 1378 1376 1375 1374 1372 1371 1370 1369 1368 1368 1367 1366 1365
1478 1475 1471 1467 1463 1459 1455 1450 1445 1441 1436 1431 1427 1424 1420 1417 1413 1410 1407 1403 1400 1397 1393 1389 1384 1380 1378 1377 1375 1373 1369 1366 1364 1364 1362 1360 1360 1359 1358 1358 1357 1356 1356
1472 1468 1464 1459 1455 1452 1448 1443 1439 1433 1428 1423 1418 1414 1411 1407 1403 1400 1398 1395 1393 1389 1385 1381 1377 1373 1370 1369 1367 1364 1361 1358 1353 1354 1353 1350 1350 1348 1348 1348 1348 1347 1346
1465 1461 1457 1452 1448 1444 1440 1435 1431 1426 1420 1415 1410 1406 1401 1398 1395 1391 1388 1385 1382 1380 1378 1375 1369 1365 1362 1360 1358 1355 1353 1350 1346 1345 1345 1340 1340 1338 1339 1339 1339 1338 1338
1458 1454 1449 1445 1440 1436 1432 1427 1422 1417 1411 1407 1403 1398 1394 1389 1387 1383 1379 1375 1372 1369 1367 1364 1360 1356 1353 1351 1349 1346 1343 1339 1336 1336 1336 1332 1330 1330 1330 1329 1330 1330 1330
1451 1447 1442 1437 1432 1427 1424 1419 1414 1408 1403 1398 1394 1390 1387 1382 1379 1376 1372 1366 1362 1359 1357 1354 1351 1347 1345 1342 1341 1338 1334 1331 1327 1326 1326 1324 1322 1322 1321 1320 1321 1322 1322
1443 1439 1434 1430 1425 1420 1416 1412 1407 1401 1395 1390 1385 1382 1379 1375 1371 1368 1364 1358 1353 1349 1346 1343 1340 1337 1334 1332 1331 1329 1326 1323 1320 1317 1317 1316 1315 1315 1313 1312 1313 1314 1315